リニア彗星

306P/LINEAR (2025)

English version
Home page
Updated on October 21, 2025

---------------------------------------------------------------------

・ プロフィール

・ 写真集

・ 軌道要素

Epoch 2025 May 5.0 TT = JDT 2460800.5
T 2025 Aug. 1.64142 TT                                  Pike
q   1.2729598            (2000.0)            P               Q
n   0.17845877     Peri.    0.90661     +0.95232867     +0.30155634
a   3.1244779      Node   341.34074     -0.28080075     +0.80726082
e   0.5925848      Incl.    8.30157     -0.11925202     +0.50733987
P   5.52
From 349 observations 2003 July 30-2025 Aug. 3, mean residual 0".9.

・ 光度変化

        m1 = 18.5 + 5 logΔ + 10.0 log r

---------------------------------------------------------------------

軌道要素はM.P.E.C. 2025-P113に掲載されたものです。
光度グラフはComet for Windowsで作成したものです。

---------------------------------------------------------------------

Copyright(C) Seiichi Yoshida (comet@aerith.net). All rights reserved.